UAL1577 KORD-KSFO

Flight info

Callsign UAL1577
Flight time N/A
Altitude 34000
Route MYKIE MONNY JORDY ONL KD75A ZIKRU
Aircraft A321/M-VGDW/C

Departure

Time 2026-05-06 19:30
Airport Chicago O'Hare International Airport (KORD)

Arrival

Time N/A
Airport San Francisco International Airport (KSFO)
Time Latitude Longitude Altitude Speed Heading
2026-05-06 19:15 41.97633 -87.91023 669 ft 0 kts 339°
2026-05-06 19:17 41.97616 -87.91014 669 ft 3 kts 339°
2026-05-06 19:17 41.97598 -87.91004 669 ft 2 kts 311°
2026-05-06 19:17 41.97596 -87.91002 667 ft 0 kts 302°
2026-05-06 19:21 41.97597 -87.91003 667 ft 2 kts 305°
2026-05-06 19:21 41.97615 -87.90997 667 ft 3 kts 38°
2026-05-06 19:21 41.97647 -87.90961 669 ft 9 kts 35°
2026-05-06 19:21 41.97722 -87.90927 669 ft 15 kts 11°
2026-05-06 19:22 41.97825 -87.90903 669 ft 14 kts
2026-05-06 19:22 41.97918 -87.90881 669 ft 13 kts 11°
2026-05-06 19:22 41.98002 -87.90860 669 ft 11 kts 11°
2026-05-06 19:22 41.98083 -87.90849 669 ft 13 kts 360°
2026-05-06 19:23 41.98167 -87.90857 668 ft 11 kts 355°
2026-05-06 19:23 41.98241 -87.90836 666 ft 13 kts 30°
2026-05-06 19:23 41.98288 -87.90726 668 ft 15 kts 85°
2026-05-06 19:23 41.98287 -87.90551 665 ft 20 kts 90°
2026-05-06 19:24 41.98286 -87.90434 668 ft 18 kts 90°
2026-05-06 19:24 41.98287 -87.90276 667 ft 16 kts 89°
2026-05-06 19:24 41.98287 -87.90097 669 ft 24 kts 90°
2026-05-06 19:24 41.98287 -87.89880 669 ft 22 kts 89°
2026-05-06 19:25 41.98287 -87.89682 670 ft 21 kts 90°
2026-05-06 19:25 41.98287 -87.89497 668 ft 19 kts 90°
2026-05-06 19:25 41.98287 -87.89330 669 ft 17 kts 90°
2026-05-06 19:25 41.98287 -87.89174 668 ft 16 kts 89°
2026-05-06 19:26 41.98286 -87.89032 668 ft 12 kts 91°
2026-05-06 19:26 41.98285 -87.89015 668 ft 0 kts 91°
2026-05-06 19:28 41.98285 -87.88998 668 ft 8 kts 91°
2026-05-06 19:28 41.98322 -87.88926 668 ft 11 kts 19°
2026-05-06 19:28 41.98383 -87.88931 667 ft 7 kts 316°
2026-05-06 19:29 41.98390 -87.88975 667 ft 0 kts 270°
2026-05-06 19:29 41.98390 -87.88977 667 ft 2 kts 270°
2026-05-06 19:29 41.98389 -87.89149 668 ft 49 kts 269°
2026-05-06 19:29 41.98390 -87.89909 671 ft 111 kts 270°
2026-05-06 19:30 41.98391 -87.91183 671 ft 159 kts 270°
2026-05-06 19:30 41.98407 -87.92724 1220 ft 160 kts 273°
2026-05-06 19:30 41.98413 -87.94224 1914 ft 162 kts 270°
2026-05-06 19:30 41.98405 -87.95759 2492 ft 171 kts 269°
2026-05-06 19:31 41.98597 -87.97430 2842 ft 193 kts 285°
2026-05-06 19:31 41.98992 -87.99262 3149 ft 214 kts 286°
2026-05-06 19:31 41.99907 -88.03480 3510 ft 255 kts 286°
2026-05-06 19:32 42.00410 -88.05799 4112 ft 260 kts 286°
2026-05-06 19:32 42.00917 -88.08141 4843 ft 261 kts 286°
2026-05-06 19:32 42.01423 -88.10484 5582 ft 261 kts 285°
2026-05-06 19:32 42.01928 -88.12828 6311 ft 260 kts 285°
2026-05-06 19:33 42.02429 -88.15167 7000 ft 261 kts 285°
2026-05-06 19:33 42.02934 -88.17516 7660 ft 261 kts 285°
2026-05-06 19:33 42.03441 -88.19875 8278 ft 264 kts 285°
2026-05-06 19:33 42.03951 -88.22258 8901 ft 266 kts 285°
2026-05-06 19:34 42.04466 -88.24652 9514 ft 268 kts 284°
2026-05-06 19:34 42.04983 -88.27063 10149 ft 268 kts 284°
2026-05-06 19:34 42.05512 -88.29557 10361 ft 286 kts 284°
2026-05-06 19:34 42.06075 -88.32217 10491 ft 305 kts 284°
2026-05-06 19:35 42.06672 -88.35031 10618 ft 321 kts 284°
2026-05-06 19:35 42.07298 -88.37974 10898 ft 331 kts 284°
2026-05-06 19:35 42.07934 -88.40965 11403 ft 333 kts 283°
2026-05-06 19:35 42.08571 -88.43965 11950 ft 335 kts 283°
2026-05-06 19:36 42.09213 -88.46991 12493 ft 336 kts 283°
2026-05-06 19:36 42.09856 -88.50018 13022 ft 337 kts 283°
2026-05-06 19:36 42.10501 -88.53065 13545 ft 339 kts 283°
2026-05-06 19:36 42.11145 -88.56119 14041 ft 340 kts 283°
2026-05-06 19:37 42.11792 -88.59193 14500 ft 342 kts 283°
2026-05-06 19:37 42.12442 -88.62283 14972 ft 344 kts 283°
2026-05-06 19:37 42.13084 -88.65345 15431 ft 345 kts 283°
2026-05-06 19:37 42.13738 -88.68461 15871 ft 347 kts 282°
2026-05-06 19:38 42.14393 -88.71595 16312 ft 348 kts 282°
2026-05-06 19:38 42.15050 -88.74747 16713 ft 349 kts 282°
2026-05-06 19:38 42.15708 -88.77908 17116 ft 351 kts 282°
2026-05-06 19:38 42.16206 -88.81115 17474 ft 349 kts 273°
2026-05-06 19:39 42.16245 -88.84377 17844 ft 349 kts 266°
2026-05-06 19:39 42.16157 -88.87650 18196 ft 350 kts 266°
2026-05-06 19:39 42.16076 -88.90930 18566 ft 351 kts 266°
2026-05-06 19:39 42.15997 -88.94219 18933 ft 352 kts 266°
2026-05-06 19:40 42.15918 -88.97515 19292 ft 352 kts 266°
2026-05-06 19:40 42.15837 -89.00810 19665 ft 352 kts 266°
2026-05-06 19:40 42.15757 -89.04110 20019 ft 352 kts 266°
2026-05-06 19:40 42.15675 -89.07414 20369 ft 353 kts 266°
2026-05-06 19:41 42.15590 -89.10721 20725 ft 354 kts 266°
2026-05-06 19:41 42.15503 -89.14036 21092 ft 354 kts 265°
2026-05-06 19:41 42.15415 -89.17357 21466 ft 354 kts 265°
2026-05-06 19:41 42.15329 -89.20679 21821 ft 355 kts 265°
2026-05-06 19:42 42.15240 -89.24008 22169 ft 356 kts 265°
2026-05-06 19:42 42.15146 -89.27339 22530 ft 356 kts 265°
2026-05-06 19:42 42.15052 -89.30674 22869 ft 356 kts 265°
2026-05-06 19:42 42.14961 -89.34010 23215 ft 357 kts 265°
2026-05-06 19:43 42.14870 -89.37349 23535 ft 357 kts 265°
2026-05-06 19:43 42.14778 -89.40692 23846 ft 357 kts 265°
2026-05-06 19:43 42.14680 -89.44043 24139 ft 358 kts 265°
2026-05-06 19:43 42.14582 -89.47395 24441 ft 358 kts 265°
2026-05-06 19:44 42.14484 -89.50718 24720 ft 359 kts 265°
2026-05-06 19:44 42.14383 -89.54086 25010 ft 360 kts 265°
2026-05-06 19:44 42.14282 -89.57464 25281 ft 361 kts 265°
2026-05-06 19:44 42.14183 -89.60850 25551 ft 362 kts 265°
2026-05-06 19:45 42.14083 -89.64240 25819 ft 362 kts 265°
2026-05-06 19:45 42.13980 -89.67641 26066 ft 364 kts 265°
2026-05-06 19:45 42.13874 -89.71053 26313 ft 365 kts 265°
2026-05-06 19:45 42.13766 -89.74482 26545 ft 366 kts 265°
2026-05-06 19:46 42.13654 -89.77909 26788 ft 367 kts 265°
2026-05-06 19:46 42.13543 -89.81344 27007 ft 368 kts 265°
2026-05-06 19:46 42.13434 -89.84792 27204 ft 369 kts 265°
2026-05-06 19:46 42.13322 -89.88243 27400 ft 368 kts 264°
2026-05-06 19:47 42.13209 -89.91707 27554 ft 371 kts 264°
2026-05-06 19:47 42.13094 -89.95180 27738 ft 371 kts 265°
2026-05-06 19:47 42.12978 -89.98653 27907 ft 372 kts 264°
2026-05-06 19:47 42.12861 -90.02143 28062 ft 373 kts 265°
2026-05-06 19:48 42.12741 -90.05633 28222 ft 373 kts 264°
2026-05-06 19:48 42.12619 -90.09126 28399 ft 373 kts 264°
2026-05-06 19:48 42.12498 -90.12617 28612 ft 372 kts 264°
2026-05-06 19:48 42.12376 -90.16091 28824 ft 371 kts 264°
2026-05-06 19:49 42.12254 -90.19560 29041 ft 370 kts 264°
2026-05-06 19:49 42.12133 -90.22975 29238 ft 368 kts 264°
2026-05-06 19:49 42.12008 -90.26417 29407 ft 368 kts 264°
2026-05-06 19:49 42.11883 -90.29858 29601 ft 367 kts 264°
2026-05-06 19:50 42.11758 -90.33294 29789 ft 367 kts 264°
2026-05-06 19:50 42.11631 -90.36722 29980 ft 366 kts 264°
2026-05-06 19:50 42.11503 -90.40144 30174 ft 365 kts 264°
2026-05-06 19:50 42.11376 -90.43556 30341 ft 365 kts 264°
2026-05-06 19:51 42.11251 -90.46966 30504 ft 364 kts 264°
2026-05-06 19:51 42.11124 -90.50374 30660 ft 364 kts 264°
2026-05-06 19:51 42.10993 -90.53777 30811 ft 364 kts 264°
2026-05-06 19:51 42.10859 -90.57182 30967 ft 364 kts 264°
2026-05-06 19:52 42.10724 -90.60580 31119 ft 363 kts 264°
2026-05-06 19:52 42.10590 -90.63976 31270 ft 363 kts 264°
2026-05-06 19:52 42.10458 -90.67374 31423 ft 363 kts 264°
2026-05-06 19:52 42.10325 -90.70768 31573 ft 363 kts 264°
2026-05-06 19:53 42.10190 -90.74162 31713 ft 363 kts 264°
2026-05-06 19:53 42.10053 -90.77556 31866 ft 363 kts 264°
2026-05-06 19:53 42.09915 -90.80941 32009 ft 363 kts 264°
2026-05-06 19:53 42.09776 -90.84333 32149 ft 363 kts 264°
2026-05-06 19:54 42.09635 -90.87724 32293 ft 363 kts 264°
2026-05-06 19:54 42.09491 -90.91121 32444 ft 363 kts 264°
2026-05-06 19:54 42.09348 -90.94513 32576 ft 363 kts 264°
2026-05-06 19:54 42.09204 -90.97908 32705 ft 363 kts 264°
2026-05-06 19:55 42.09060 -91.01303 32851 ft 363 kts 264°
2026-05-06 19:55 42.08917 -91.04702 32970 ft 363 kts 264°
2026-05-06 19:55 42.08778 -91.08054 33096 ft 364 kts 264°
2026-05-06 19:55 42.08633 -91.11449 33226 ft 363 kts 264°
2026-05-06 19:56 42.08482 -91.14847 33352 ft 363 kts 264°
2026-05-06 19:56 42.08331 -91.18243 33479 ft 363 kts 264°
2026-05-06 19:56 42.08181 -91.21632 33607 ft 363 kts 264°
2026-05-06 19:56 42.08031 -91.25028 33731 ft 363 kts 264°
2026-05-06 19:57 42.07883 -91.28422 33859 ft 363 kts 264°
2026-05-06 19:57 42.07824 -91.31826 34016 ft 363 kts 266°
2026-05-06 19:57 42.07935 -91.38644 34092 ft 364 kts 268°
2026-05-06 19:58 42.08095 -91.45433 34092 ft 363 kts 268°
2026-05-06 19:58 42.08201 -91.52235 34088 ft 363 kts 267°
2026-05-06 19:59 42.08273 -91.59038 34100 ft 363 kts 267°
2026-05-06 19:59 42.08328 -91.65832 34103 ft 363 kts 267°
2026-05-06 20:00 42.08382 -91.72627 34106 ft 363 kts 267°
2026-05-06 20:00 42.08446 -91.79422 34108 ft 363 kts 267°
2026-05-06 20:01 42.08509 -91.86214 34110 ft 363 kts 267°
2026-05-06 20:01 42.08564 -91.93012 34114 ft 363 kts 267°
2026-05-06 20:02 42.08612 -91.99807 34118 ft 363 kts 267°
2026-05-06 20:02 42.08660 -92.06599 34122 ft 363 kts 267°
2026-05-06 20:03 42.08699 -92.13347 34122 ft 362 kts 267°
2026-05-06 20:03 42.08738 -92.20139 34122 ft 363 kts 267°
2026-05-06 20:04 42.08772 -92.26937 34122 ft 363 kts 267°
2026-05-06 20:04 42.08800 -92.33745 34123 ft 363 kts 267°
2026-05-06 20:05 42.08824 -92.40554 34120 ft 364 kts 267°
2026-05-06 20:05 42.08838 -92.47371 34119 ft 365 kts 267°
2026-05-06 20:06 42.08850 -92.54205 34117 ft 365 kts 267°
2026-05-06 20:06 42.08874 -92.61052 34119 ft 366 kts 267°
2026-05-06 20:07 42.08885 -92.67921 34116 ft 367 kts 267°
2026-05-06 20:07 42.08885 -92.74788 34115 ft 367 kts 267°
2026-05-06 20:08 42.08882 -92.81620 34114 ft 368 kts 267°
2026-05-06 20:08 42.08885 -92.88515 34113 ft 369 kts 267°
2026-05-06 20:09 42.08877 -92.95420 34111 ft 369 kts 267°
2026-05-06 20:09 42.08865 -93.02344 34110 ft 370 kts 267°
2026-05-06 20:10 42.08848 -93.09277 34106 ft 370 kts 266°
2026-05-06 20:10 42.08822 -93.16216 34105 ft 371 kts 266°
2026-05-06 20:11 42.08798 -93.23163 34107 ft 371 kts 267°
2026-05-06 20:11 42.08778 -93.28939 34109 ft 371 kts 266°
2026-05-06 20:12 42.08747 -93.35884 34112 ft 371 kts 266°
2026-05-06 20:12 42.08710 -93.42829 34113 ft 371 kts 266°
2026-05-06 20:13 42.08667 -93.49771 34112 ft 371 kts 266°
2026-05-06 20:13 42.09050 -93.56716 34113 ft 374 kts 273°
2026-05-06 20:14 42.09728 -93.63657 34110 ft 374 kts 272°
2026-05-06 20:14 42.10397 -93.70596 34108 ft 374 kts 272°
2026-05-06 20:15 42.11057 -93.77542 34109 ft 374 kts 272°
2026-05-06 20:15 42.11711 -93.84505 34111 ft 374 kts 272°
2026-05-06 20:16 42.12366 -93.91412 34114 ft 374 kts 272°
2026-05-06 20:16 42.13029 -93.98407 34115 ft 374 kts 272°
2026-05-06 20:17 42.13675 -94.05359 34110 ft 374 kts 272°
2026-05-06 20:17 42.14315 -94.12310 34112 ft 374 kts 272°
2026-05-06 20:18 42.14948 -94.19230 34112 ft 374 kts 272°
2026-05-06 20:18 42.15579 -94.26198 34115 ft 374 kts 272°
2026-05-06 20:19 42.16206 -94.33169 34117 ft 374 kts 272°
2026-05-06 20:19 42.16832 -94.40140 34118 ft 374 kts 272°
2026-05-06 20:20 42.17459 -94.47114 34117 ft 375 kts 272°
2026-05-06 20:20 42.18084 -94.54107 34115 ft 376 kts 272°
2026-05-06 20:21 42.18700 -94.61108 34113 ft 376 kts 272°
2026-05-06 20:21 42.19308 -94.68128 34112 ft 377 kts 272°
2026-05-06 20:22 42.19919 -94.75152 34111 ft 378 kts 273°
2026-05-06 20:22 42.20529 -94.82188 34109 ft 378 kts 273°
2026-05-06 20:23 42.21131 -94.89243 34109 ft 379 kts 273°
2026-05-06 20:23 42.21726 -94.96256 34108 ft 379 kts 273°
2026-05-06 20:24 42.22321 -95.03323 34108 ft 379 kts 273°
2026-05-06 20:24 42.22915 -95.10403 34110 ft 380 kts 273°
2026-05-06 20:25 42.23506 -95.17517 34113 ft 381 kts 273°
2026-05-06 20:25 42.24086 -95.24623 34117 ft 382 kts 273°
2026-05-06 20:26 42.24666 -95.31742 34123 ft 381 kts 272°
2026-05-06 20:26 42.25245 -95.38863 34126 ft 381 kts 273°
2026-05-06 20:27 42.25818 -95.45980 34129 ft 381 kts 272°
2026-05-06 20:27 42.26385 -95.53098 34132 ft 381 kts 272°
2026-05-06 20:28 42.26949 -95.60206 34132 ft 380 kts 272°
2026-05-06 20:28 42.27501 -95.67308 34132 ft 380 kts 272°
2026-05-06 20:29 42.28055 -95.74351 34133 ft 380 kts 272°
2026-05-06 20:29 42.28602 -95.81441 34130 ft 380 kts 272°
2026-05-06 20:30 42.29406 -95.92078 34133 ft 379 kts 272°
2026-05-06 20:31 42.29943 -95.99157 34134 ft 379 kts 272°
2026-05-06 20:31 42.30475 -96.06244 34133 ft 379 kts 272°
2026-05-06 20:32 42.31003 -96.13326 34131 ft 379 kts 272°
2026-05-06 20:32 42.31533 -96.20419 34129 ft 379 kts 272°
2026-05-06 20:33 42.32047 -96.27464 34126 ft 379 kts 272°
2026-05-06 20:33 42.32560 -96.34561 34113 ft 380 kts 272°
2026-05-06 20:34 42.33073 -96.41671 34114 ft 380 kts 272°
2026-05-06 20:34 42.33580 -96.48791 34109 ft 381 kts 272°
2026-05-06 20:35 42.34089 -96.55931 34112 ft 382 kts 272°
2026-05-06 20:35 42.34585 -96.63093 34105 ft 383 kts 272°
2026-05-06 20:36 42.35080 -96.70277 34108 ft 384 kts 272°
2026-05-06 20:36 42.35567 -96.77431 34109 ft 385 kts 272°
2026-05-06 20:37 42.36065 -96.84643 34110 ft 386 kts 273°
2026-05-06 20:37 42.36551 -96.91881 34109 ft 387 kts 273°
2026-05-06 20:38 42.37036 -96.99134 34110 ft 388 kts 273°
2026-05-06 20:38 42.37518 -97.06391 34111 ft 388 kts 273°
2026-05-06 20:39 42.37995 -97.13670 34112 ft 389 kts 273°
2026-05-06 20:39 42.38469 -97.20962 34114 ft 390 kts 273°
2026-05-06 20:40 42.38937 -97.28278 34121 ft 390 kts 273°
2026-05-06 20:40 42.39399 -97.35596 34123 ft 391 kts 273°
2026-05-06 20:41 42.39864 -97.42929 34126 ft 391 kts 273°
2026-05-06 20:41 42.40327 -97.50271 34128 ft 391 kts 273°
2026-05-06 20:42 42.40781 -97.57600 34130 ft 391 kts 273°
2026-05-06 20:42 42.41230 -97.64941 34135 ft 391 kts 273°
2026-05-06 20:43 42.41670 -97.72267 34136 ft 391 kts 273°
2026-05-06 20:43 42.42104 -97.79566 34137 ft 391 kts 273°
2026-05-06 20:44 42.42541 -97.86899 34138 ft 391 kts 273°
2026-05-06 20:44 42.42971 -97.94239 34139 ft 391 kts 273°
2026-05-06 20:45 42.43394 -98.01577 34138 ft 391 kts 272°
2026-05-06 20:45 42.43812 -98.08909 34135 ft 391 kts 273°
2026-05-06 20:46 42.44228 -98.16255 34133 ft 391 kts 273°
2026-05-06 20:46 42.44638 -98.23597 34132 ft 391 kts 273°
2026-05-06 20:47 42.45039 -98.30946 34130 ft 392 kts 272°
2026-05-06 20:47 42.45434 -98.38263 34129 ft 392 kts 273°
2026-05-06 20:48 42.45832 -98.45642 34127 ft 393 kts 273°
2026-05-06 20:48 42.46231 -98.53033 34125 ft 394 kts 273°
2026-05-06 20:49 42.46625 -98.60439 34125 ft 394 kts 273°
2026-05-06 20:49 42.47010 -98.67856 34124 ft 395 kts 273°
2026-05-06 20:50 42.47297 -98.75296 34122 ft 396 kts 271°
2026-05-06 20:50 42.47465 -98.82757 34120 ft 397 kts 271°
2026-05-06 20:51 42.47630 -98.90237 34117 ft 398 kts 271°
2026-05-06 20:51 42.47821 -98.97737 34120 ft 399 kts 271°
2026-05-06 20:52 42.48019 -99.05256 34122 ft 399 kts 271°
2026-05-06 20:52 42.48206 -99.12787 34122 ft 400 kts 271°
2026-05-06 20:53 42.48386 -99.20322 34123 ft 401 kts 271°
2026-05-06 20:53 42.48563 -99.27876 34127 ft 402 kts 271°
2026-05-06 20:54 42.48733 -99.35443 34129 ft 402 kts 271°
2026-05-06 20:54 42.48905 -99.43009 34130 ft 402 kts 271°
2026-05-06 20:55 42.49068 -99.50579 34125 ft 402 kts 271°
2026-05-06 20:55 42.49221 -99.58147 34121 ft 402 kts 271°
2026-05-06 20:56 42.49371 -99.65720 34120 ft 402 kts 271°
2026-05-06 20:56 42.49522 -99.73252 34120 ft 403 kts 271°
2026-05-06 20:57 42.49666 -99.80841 34123 ft 403 kts 271°
2026-05-06 20:57 42.49802 -99.88434 34125 ft 403 kts 271°
2026-05-06 20:58 42.49913 -99.94746 34125 ft 402 kts 271°
2026-05-06 20:58 42.49680 -100.02302 34123 ft 402 kts 259°
2026-05-06 20:59 42.48596 -100.09744 34115 ft 403 kts 260°
2026-05-06 20:59 42.47521 -100.17202 34111 ft 404 kts 260°
2026-05-06 21:00 42.46447 -100.24673 34112 ft 404 kts 260°
2026-05-06 21:00 42.45360 -100.32151 34112 ft 405 kts 260°
2026-05-06 21:01 42.44272 -100.39590 34112 ft 405 kts 260°
2026-05-06 21:01 42.43170 -100.47079 34110 ft 406 kts 260°
2026-05-06 21:02 42.42061 -100.54571 34108 ft 406 kts 260°
2026-05-06 21:02 42.40938 -100.62126 34106 ft 407 kts 260°
2026-05-06 21:03 42.39822 -100.69583 34102 ft 407 kts 260°
2026-05-06 21:03 42.38698 -100.77107 34099 ft 408 kts 260°
2026-05-06 21:04 42.37571 -100.84641 34098 ft 409 kts 260°
2026-05-06 21:04 42.36429 -100.92209 34094 ft 410 kts 260°
2026-05-06 21:05 42.35276 -100.99782 34092 ft 411 kts 260°
2026-05-06 21:05 42.34128 -101.07329 34095 ft 412 kts 260°
2026-05-06 21:06 42.32962 -101.14934 34092 ft 414 kts 260°
2026-05-06 21:06 42.31782 -101.22560 34096 ft 415 kts 260°
2026-05-06 21:07 42.30595 -101.30195 34097 ft 416 kts 260°
2026-05-06 21:07 42.29411 -101.37840 34098 ft 417 kts 260°
2026-05-06 21:08 42.28217 -101.45509 34099 ft 417 kts 260°
2026-05-06 21:08 42.27009 -101.53187 34102 ft 418 kts 260°
2026-05-06 21:09 42.25800 -101.60870 34104 ft 418 kts 260°
2026-05-06 21:09 42.24592 -101.68549 34106 ft 418 kts 259°
2026-05-06 21:10 42.23380 -101.76220 34103 ft 419 kts 260°
2026-05-06 21:10 42.22143 -101.83950 34102 ft 425 kts 261°
2026-05-06 21:11 42.20877 -101.91818 34100 ft 432 kts 260°
2026-05-06 21:11 42.19595 -101.99732 34099 ft 432 kts 260°
2026-05-06 21:12 42.18316 -102.07610 34100 ft 433 kts 260°
2026-05-06 21:12 42.17020 -102.15548 34100 ft 434 kts 260°
2026-05-06 21:13 42.15722 -102.23489 34101 ft 433 kts 260°
2026-05-06 21:13 42.14418 -102.31421 34101 ft 434 kts 260°
2026-05-06 21:14 42.13105 -102.39361 34098 ft 434 kts 260°
2026-05-06 21:14 42.11792 -102.47299 34091 ft 434 kts 261°
2026-05-06 21:15 42.10470 -102.55246 34090 ft 435 kts 261°
2026-05-06 21:15 42.09137 -102.63205 34084 ft 436 kts 261°
2026-05-06 21:16 42.07791 -102.71174 34086 ft 437 kts 261°
2026-05-06 21:16 42.06443 -102.79173 34084 ft 439 kts 262°
2026-05-06 21:17 42.05087 -102.87197 34084 ft 440 kts 262°
2026-05-06 21:17 42.03724 -102.95181 34080 ft 441 kts 262°
2026-05-06 21:18 42.02343 -103.03246 34075 ft 443 kts 262°
2026-05-06 21:18 42.00950 -103.11331 34079 ft 445 kts 263°
2026-05-06 21:19 41.99548 -103.19439 34081 ft 446 kts 263°
2026-05-06 21:19 41.98139 -103.27569 34106 ft 446 kts 262°
2026-05-06 21:20 41.96724 -103.35695 34114 ft 446 kts 262°
2026-05-06 21:20 41.95298 -103.43821 34113 ft 447 kts 262°
2026-05-06 21:21 41.93870 -103.51959 34110 ft 448 kts 263°
2026-05-06 21:21 41.92433 -103.60129 34108 ft 450 kts 263°
2026-05-06 21:22 41.90980 -103.68310 34106 ft 451 kts 263°
2026-05-06 21:22 41.89513 -103.76509 34106 ft 452 kts 263°
2026-05-06 21:23 41.88013 -103.84670 34107 ft 454 kts 262°
2026-05-06 21:23 41.86423 -103.92889 34109 ft 455 kts 262°
2026-05-06 21:24 41.84823 -104.01110 34114 ft 456 kts 262°
2026-05-06 21:24 41.83232 -104.09355 34114 ft 456 kts 262°
2026-05-06 21:25 41.81631 -104.17596 34115 ft 457 kts 262°
2026-05-06 21:25 41.80023 -104.25834 34115 ft 457 kts 262°
2026-05-06 21:26 41.78414 -104.34066 34116 ft 457 kts 262°
2026-05-06 21:26 41.76795 -104.42309 34119 ft 457 kts 262°
2026-05-06 21:27 41.75175 -104.50531 34118 ft 457 kts 262°
2026-05-06 21:27 41.73548 -104.58751 34118 ft 457 kts 262°
2026-05-06 21:28 41.71913 -104.66970 34119 ft 457 kts 262°
2026-05-06 21:28 41.70274 -104.75179 34119 ft 457 kts 262°
2026-05-06 21:29 41.68631 -104.83390 34120 ft 457 kts 262°
2026-05-06 21:29 41.66979 -104.91602 34116 ft 457 kts 262°
2026-05-06 21:30 41.65320 -104.99805 34109 ft 458 kts 262°
2026-05-06 21:30 41.63649 -105.08029 34110 ft 458 kts 262°
2026-05-06 21:31 41.61975 -105.16252 34110 ft 459 kts 262°
2026-05-06 21:31 41.60304 -105.24438 34109 ft 460 kts 263°
2026-05-06 21:32 41.58605 -105.32746 34110 ft 461 kts 263°
2026-05-06 21:32 41.56046 -105.45104 34115 ft 463 kts 263°
2026-05-06 21:33 41.54322 -105.53378 34114 ft 463 kts 263°
2026-05-06 21:33 41.52594 -105.61667 34119 ft 464 kts 263°
2026-05-06 21:34 41.50856 -105.69977 34123 ft 465 kts 263°
2026-05-06 21:34 41.49111 -105.78304 34127 ft 466 kts 264°
2026-05-06 21:35 41.47364 -105.86630 34129 ft 466 kts 263°
2026-05-06 21:35 41.45604 -105.94952 34132 ft 467 kts 263°
2026-05-06 21:36 41.43835 -106.03284 34133 ft 467 kts 264°
2026-05-06 21:36 41.42059 -106.11615 34135 ft 468 kts 263°
2026-05-06 21:37 41.40264 -106.19963 34138 ft 469 kts 263°
2026-05-06 21:37 41.38470 -106.28312 34141 ft 469 kts 263°
2026-05-06 21:38 41.36671 -106.36657 34145 ft 469 kts 263°
2026-05-06 21:38 41.34861 -106.44994 34151 ft 469 kts 263°
2026-05-06 21:39 41.33058 -106.53271 34160 ft 468 kts 263°
2026-05-06 21:39 41.31250 -106.61592 34160 ft 468 kts 263°
2026-05-06 21:40 41.29431 -106.69911 34165 ft 468 kts 263°
2026-05-06 21:40 41.27599 -106.78224 34166 ft 469 kts 262°
2026-05-06 21:41 41.25762 -106.86539 34171 ft 469 kts 262°
2026-05-06 21:41 41.23914 -106.94849 34171 ft 469 kts 262°
2026-05-06 21:42 41.22374 -107.01749 34173 ft 469 kts 262°
2026-05-06 21:42 41.20523 -107.10058 34178 ft 469 kts 262°
2026-05-06 21:43 41.18669 -107.18350 34176 ft 469 kts 262°
2026-05-06 21:43 41.16812 -107.26632 34179 ft 468 kts 262°
2026-05-06 21:44 41.14946 -107.34905 34184 ft 468 kts 262°
2026-05-06 21:44 41.13070 -107.43178 34190 ft 468 kts 262°
2026-05-06 21:45 41.11191 -107.51447 34194 ft 468 kts 262°
2026-05-06 21:45 41.09305 -107.59717 34193 ft 469 kts 262°
2026-05-06 21:46 41.07405 -107.67990 34194 ft 469 kts 262°
2026-05-06 21:46 41.05492 -107.76274 34193 ft 470 kts 262°
2026-05-06 21:47 41.03573 -107.84546 34197 ft 470 kts 262°
2026-05-06 21:47 41.01655 -107.92811 34192 ft 469 kts 262°
2026-05-06 21:48 40.99663 -108.00779 34188 ft 478 kts 254°
2026-05-06 21:48 40.97131 -108.07432 34188 ft 482 kts 251°
2026-05-06 21:49 40.94072 -108.15315 34185 ft 482 kts 251°
2026-05-06 21:49 40.90993 -108.23232 34243 ft 487 kts 251°
2026-05-06 21:50 40.89446 -108.27219 34375 ft 488 kts 251°
2026-05-06 21:50 40.87898 -108.31206 34562 ft 488 kts 251°
2026-05-06 21:50 40.86344 -108.35185 34759 ft 487 kts 250°
2026-05-06 21:50 40.84788 -108.39156 34959 ft 486 kts 250°
2026-05-06 21:51 40.83233 -108.43118 35148 ft 485 kts 250°
2026-05-06 21:51 40.81682 -108.47068 35341 ft 484 kts 250°
2026-05-06 21:51 40.80136 -108.51008 35531 ft 483 kts 250°
2026-05-06 21:51 40.78594 -108.54934 35707 ft 482 kts 250°
2026-05-06 21:52 40.77055 -108.58856 35884 ft 481 kts 250°
2026-05-06 21:52 40.75518 -108.62774 36073 ft 480 kts 250°
2026-05-06 21:52 40.73984 -108.66681 36180 ft 480 kts 250°
2026-05-06 21:52 40.72445 -108.70585 36204 ft 479 kts 249°
2026-05-06 21:53 40.69365 -108.78356 36201 ft 478 kts 249°
2026-05-06 21:53 40.66270 -108.86126 36199 ft 479 kts 249°
2026-05-06 21:54 40.63173 -108.93898 36202 ft 478 kts 249°
2026-05-06 21:54 40.60083 -109.01655 36203 ft 479 kts 249°
2026-05-06 21:55 40.56983 -109.09406 36200 ft 478 kts 249°
2026-05-06 21:55 40.53884 -109.17133 36197 ft 478 kts 249°
2026-05-06 21:56 40.50802 -109.24809 36198 ft 478 kts 249°
2026-05-06 21:56 40.47691 -109.32541 36195 ft 479 kts 249°
2026-05-06 21:57 40.44572 -109.40265 36189 ft 479 kts 249°
2026-05-06 21:57 40.41442 -109.47989 36189 ft 480 kts 249°
2026-05-06 21:58 40.38300 -109.55717 36192 ft 480 kts 249°
2026-05-06 21:58 40.35161 -109.63442 36189 ft 480 kts 249°
2026-05-06 21:59 40.32011 -109.71175 36186 ft 481 kts 249°
2026-05-06 21:59 40.28853 -109.78896 36184 ft 481 kts 249°
2026-05-06 22:00 40.25684 -109.86606 36189 ft 481 kts 249°
2026-05-06 22:00 40.22514 -109.94312 36196 ft 481 kts 249°
2026-05-06 22:01 40.19335 -110.02013 36195 ft 481 kts 249°
2026-05-06 22:01 40.16143 -110.09710 36198 ft 481 kts 248°
2026-05-06 22:02 40.13071 -110.17460 36198 ft 478 kts 252°
2026-05-06 22:02 40.10407 -110.25375 36189 ft 475 kts 255°
2026-05-06 22:03 40.07829 -110.33320 36189 ft 476 kts 254°
2026-05-06 22:03 40.05149 -110.41225 36183 ft 477 kts 253°
2026-05-06 22:04 40.02405 -110.49112 36202 ft 477 kts 253°
2026-05-06 22:04 39.99679 -110.56933 36198 ft 476 kts 253°
2026-05-06 22:05 39.96944 -110.64801 36185 ft 476 kts 252°
2026-05-06 22:05 39.94207 -110.72674 36182 ft 477 kts 252°
2026-05-06 22:06 39.91459 -110.80542 36185 ft 477 kts 252°
2026-05-06 22:06 39.88692 -110.88412 36190 ft 478 kts 252°
2026-05-06 22:07 39.85927 -110.96267 36182 ft 477 kts 252°
2026-05-06 22:07 39.83172 -111.04118 36190 ft 477 kts 252°
2026-05-06 22:08 39.80412 -111.11960 36191 ft 477 kts 252°
2026-05-06 22:08 39.77637 -111.19799 36191 ft 477 kts 252°
2026-05-06 22:09 39.74851 -111.27634 36198 ft 477 kts 252°
2026-05-06 22:09 39.72058 -111.35456 36197 ft 477 kts 252°
2026-05-06 22:10 39.69272 -111.43274 36200 ft 477 kts 252°
2026-05-06 22:10 39.66483 -111.51089 36203 ft 477 kts 251°
2026-05-06 22:11 39.63682 -111.58892 36208 ft 477 kts 251°
2026-05-06 22:11 39.60870 -111.66684 36207 ft 477 kts 251°
2026-05-06 22:12 39.58061 -111.74472 36205 ft 477 kts 251°
2026-05-06 22:12 39.55255 -111.82251 36207 ft 477 kts 251°
2026-05-06 22:13 39.52439 -111.90018 36208 ft 476 kts 251°
2026-05-06 22:13 39.49616 -111.97773 36205 ft 476 kts 251°
2026-05-06 22:14 39.46788 -112.05517 36204 ft 476 kts 251°
2026-05-06 22:14 39.43951 -112.13263 36204 ft 476 kts 251°
2026-05-06 22:15 39.41113 -112.21014 36200 ft 477 kts 251°
2026-05-06 22:15 39.38273 -112.28757 36198 ft 476 kts 251°
2026-05-06 22:16 39.35419 -112.36491 36203 ft 477 kts 251°
2026-05-06 22:16 39.32554 -112.44224 36201 ft 478 kts 251°
2026-05-06 22:17 39.29891 -112.51987 36203 ft 470 kts 259°
2026-05-06 22:17 39.28095 -112.60070 36205 ft 468 kts 261°
2026-05-06 22:18 39.26276 -112.68151 36203 ft 469 kts 260°
2026-05-06 22:18 39.24435 -112.76230 36207 ft 469 kts 260°
2026-05-06 22:19 39.22594 -112.84308 36211 ft 469 kts 260°
2026-05-06 22:19 39.20754 -112.92390 36213 ft 469 kts 260°
2026-05-06 22:20 39.18917 -113.00462 36211 ft 470 kts 260°
2026-05-06 22:20 39.17065 -113.08534 36210 ft 470 kts 260°
2026-05-06 22:21 39.15211 -113.16609 36207 ft 470 kts 260°
2026-05-06 22:21 39.13348 -113.24675 36206 ft 470 kts 260°
2026-05-06 22:22 39.11474 -113.32754 36208 ft 470 kts 260°
2026-05-06 22:22 39.09602 -113.40770 36208 ft 470 kts 259°
2026-05-06 22:23 39.07723 -113.48829 36206 ft 470 kts 260°
2026-05-06 22:23 39.05838 -113.56894 36209 ft 471 kts 259°
2026-05-06 22:24 39.03948 -113.64953 36212 ft 470 kts 259°
2026-05-06 22:24 39.02047 -113.73002 36210 ft 471 kts 259°
2026-05-06 22:25 39.00136 -113.81050 36211 ft 470 kts 259°
2026-05-06 22:25 38.98227 -113.89100 36212 ft 471 kts 259°
2026-05-06 22:26 38.96632 -113.95801 36212 ft 471 kts 259°
2026-05-06 22:26 38.94699 -114.03845 36212 ft 471 kts 259°
2026-05-06 22:27 38.92769 -114.11882 36216 ft 471 kts 259°
2026-05-06 22:27 38.90532 -114.21225 36217 ft 471 kts 259°
2026-05-06 22:28 38.88908 -114.27957 36214 ft 471 kts 259°
2026-05-06 22:28 38.86960 -114.35986 36215 ft 471 kts 259°
2026-05-06 22:29 38.85002 -114.44016 36219 ft 472 kts 258°
2026-05-06 22:29 38.83041 -114.52050 36224 ft 472 kts 258°
2026-05-06 22:30 38.81075 -114.60078 36226 ft 472 kts 258°
2026-05-06 22:30 38.79116 -114.68051 36226 ft 472 kts 258°
2026-05-06 22:31 38.77142 -114.76068 36229 ft 472 kts 258°
2026-05-06 22:31 38.75163 -114.84089 36229 ft 472 kts 258°
2026-05-06 22:32 38.73174 -114.92091 36230 ft 472 kts 258°
2026-05-06 22:32 38.71177 -115.00094 36235 ft 472 kts 258°
2026-05-06 22:33 38.69179 -115.08103 36238 ft 472 kts 258°
2026-05-06 22:33 38.67179 -115.16096 36237 ft 471 kts 258°
2026-05-06 22:34 38.65179 -115.24073 36236 ft 471 kts 258°
2026-05-06 22:34 38.63173 -115.32049 36236 ft 471 kts 258°
2026-05-06 22:35 38.61166 -115.40031 36235 ft 472 kts 258°
2026-05-06 22:35 38.59141 -115.48002 36234 ft 471 kts 257°
2026-05-06 22:36 38.57120 -115.55912 36222 ft 470 kts 257°
2026-05-06 22:36 38.55083 -115.63864 36216 ft 471 kts 257°
2026-05-06 22:37 38.53049 -115.71827 36216 ft 472 kts 257°
2026-05-06 22:37 38.51009 -115.79792 36215 ft 472 kts 257°
2026-05-06 22:38 38.48957 -115.87764 36213 ft 472 kts 257°
2026-05-06 22:38 38.46887 -115.95726 36209 ft 473 kts 257°
2026-05-06 22:39 38.44814 -116.03690 36210 ft 473 kts 257°
2026-05-06 22:39 38.42762 -116.11597 36210 ft 473 kts 257°
2026-05-06 22:40 38.40692 -116.19562 36206 ft 473 kts 256°
2026-05-06 22:40 38.38601 -116.27519 36203 ft 473 kts 257°
2026-05-06 22:41 38.35461 -116.39440 36231 ft 472 kts 256°
2026-05-06 22:42 38.33368 -116.47384 36225 ft 473 kts 256°
2026-05-06 22:42 38.31267 -116.55319 36211 ft 473 kts 256°
2026-05-06 22:43 38.29150 -116.63244 36200 ft 472 kts 256°
2026-05-06 22:43 38.27035 -116.71158 36201 ft 472 kts 256°
2026-05-06 22:44 38.24927 -116.79076 36205 ft 473 kts 256°
2026-05-06 22:44 38.22823 -116.86934 36206 ft 472 kts 256°
2026-05-06 22:45 38.20685 -116.94845 36206 ft 472 kts 256°
2026-05-06 22:45 38.18546 -117.02747 36206 ft 472 kts 256°
2026-05-06 22:46 38.16421 -117.10640 36206 ft 472 kts 256°
2026-05-06 22:46 38.14283 -117.18527 36207 ft 472 kts 255°
2026-05-06 22:47 38.12131 -117.26407 36206 ft 472 kts 255°
2026-05-06 22:47 38.10139 -117.34294 36207 ft 471 kts 258°
2026-05-06 22:48 38.08358 -117.42286 36208 ft 470 kts 259°
2026-05-06 22:48 38.06588 -117.50290 36205 ft 471 kts 258°
2026-05-06 22:49 38.04745 -117.58274 36201 ft 472 kts 258°
2026-05-06 22:49 38.02858 -117.66242 36195 ft 472 kts 257°
2026-05-06 22:50 38.00968 -117.74222 36190 ft 472 kts 258°
2026-05-06 22:50 37.99774 -117.82317 36184 ft 466 kts 268°
2026-05-06 22:51 37.98942 -117.90465 36180 ft 467 kts 267°
2026-05-06 22:51 37.98071 -117.98617 36176 ft 467 kts 267°
2026-05-06 22:52 37.97197 -118.06763 36171 ft 467 kts 267°
2026-05-06 22:52 37.96323 -118.14914 36189 ft 466 kts 267°
2026-05-06 22:53 37.95450 -118.23062 36183 ft 467 kts 267°
2026-05-06 22:53 37.94574 -118.31214 36200 ft 467 kts 267°
2026-05-06 22:54 37.93680 -118.39350 36157 ft 466 kts 266°
2026-05-06 22:54 37.92785 -118.47492 36181 ft 467 kts 267°
2026-05-06 22:55 37.91892 -118.55639 36204 ft 467 kts 266°
2026-05-06 22:55 37.90986 -118.63799 36222 ft 468 kts 266°
2026-05-06 22:56 37.90072 -118.71903 36238 ft 468 kts 266°
2026-05-06 22:56 37.89150 -118.80057 36252 ft 468 kts 266°
2026-05-06 22:57 37.88227 -118.88220 36263 ft 468 kts 266°
2026-05-06 22:57 37.87305 -118.96367 36264 ft 468 kts 266°
2026-05-06 22:58 37.86380 -119.04517 36271 ft 467 kts 266°
2026-05-06 22:58 37.85449 -119.12652 36274 ft 467 kts 266°
2026-05-06 22:59 37.84494 -119.20783 36272 ft 467 kts 265°
2026-05-06 22:59 37.83548 -119.28858 36267 ft 466 kts 266°
2026-05-06 23:00 37.82601 -119.36978 36260 ft 466 kts 265°
2026-05-06 23:00 37.81638 -119.45088 36262 ft 466 kts 265°
2026-05-06 23:01 37.80675 -119.53162 36222 ft 463 kts 265°
2026-05-06 23:01 37.79713 -119.61220 36220 ft 464 kts 265°
2026-05-06 23:02 37.78744 -119.69281 36218 ft 464 kts 265°
2026-05-06 23:02 37.77767 -119.77337 36215 ft 463 kts 265°
2026-05-06 23:03 37.76782 -119.85384 36199 ft 463 kts 265°
2026-05-06 23:03 37.75799 -119.93410 36152 ft 461 kts 265°
2026-05-06 23:04 37.74809 -120.01434 35995 ft 462 kts 265°
2026-05-06 23:04 37.74312 -120.05445 35748 ft 462 kts 265°
2026-05-06 23:04 37.73811 -120.09457 35249 ft 462 kts 265°
2026-05-06 23:04 37.73308 -120.13475 34433 ft 464 kts 264°
2026-05-06 23:05 37.72805 -120.17511 33551 ft 467 kts 264°
2026-05-06 23:05 37.72306 -120.21526 32658 ft 471 kts 264°
2026-05-06 23:05 37.71791 -120.25624 31718 ft 473 kts 264°
2026-05-06 23:05 37.71268 -120.29737 30795 ft 476 kts 264°
2026-05-06 23:06 37.70741 -120.33852 30145 ft 471 kts 264°
2026-05-06 23:06 37.70220 -120.37910 29511 ft 466 kts 264°
2026-05-06 23:06 37.69708 -120.41933 28878 ft 462 kts 264°
2026-05-06 23:06 37.69227 -120.45917 28292 ft 456 kts 264°
2026-05-06 23:07 37.68771 -120.49866 27648 ft 452 kts 265°
2026-05-06 23:07 37.68330 -120.53772 27061 ft 447 kts 265°
2026-05-06 23:07 37.67895 -120.57637 26477 ft 442 kts 265°
2026-05-06 23:07 37.67454 -120.61462 25898 ft 437 kts 264°
2026-05-06 23:08 37.67014 -120.65241 25320 ft 433 kts 264°
2026-05-06 23:08 37.66571 -120.68973 24752 ft 428 kts 264°
2026-05-06 23:08 37.66131 -120.72661 24246 ft 421 kts 264°
2026-05-06 23:08 37.65700 -120.76283 23812 ft 412 kts 264°
2026-05-06 23:09 37.65278 -120.79843 23403 ft 409 kts 264°
2026-05-06 23:09 37.64855 -120.83386 22820 ft 405 kts 264°
2026-05-06 23:09 37.64441 -120.86840 22254 ft 402 kts 264°
2026-05-06 23:09 37.64021 -120.90318 21657 ft 399 kts 264°
2026-05-06 23:10 37.63599 -120.93769 21093 ft 396 kts 264°
2026-05-06 23:10 37.63178 -120.97194 20529 ft 394 kts 263°
2026-05-06 23:10 37.62741 -121.00602 19990 ft 391 kts 263°
2026-05-06 23:10 37.62293 -121.03974 19419 ft 389 kts 263°
2026-05-06 23:11 37.61838 -121.07324 18871 ft 386 kts 263°
2026-05-06 23:11 37.61382 -121.10654 18323 ft 384 kts 263°
2026-05-06 23:11 37.60930 -121.13958 17759 ft 382 kts 263°
2026-05-06 23:11 37.60479 -121.17271 17114 ft 382 kts 262°
2026-05-06 23:12 37.60032 -121.20557 16574 ft 379 kts 262°